Regional Weather Roundup
Issued by NWS Cleveland, OH

Home | Current Version | Previous Version | Text Only | Print | Product List | Glossary Off
Versions: 1 2 3 4 5 6 7 8 9 10 11 12 13 14 15 16 17 18 19 20 21 22 23 24 25 26 27 28 29 30 31 32 33 34 35 36 37 38 39 40 41 42 43 44 45 46 47 48 49 50

000
ASUS41 KCLE 252010
RWRCLE
OHIO REGIONAL WEATHER ROUNDUP
NATIONAL WEATHER SERVICE CLEVELAND, OH
400 PM EDT MON SEP 25 2017

NOTE: "FAIR" INDICATES FEW OR NO CLOUDS BELOW 12,000 FEET WITH NO
SIGNIFICANT WEATHER AND/OR OBSTRUCTIONS TO VISIBILITY.

OHZ001>008-015>018-024>027-034-035-043-044-252100-
   NORTHWEST OHIO

CITY           SKY/WX    TMP DP  RH WIND       PRES   REMARKS
DEFIANCE       SUNNY     88  59  37 SE6       29.99F
FINDLAY        MOSUNNY   90  61  37 VRB5      29.99F HX  90
TOLEDO EXPRESS MOSUNNY   91  63  39 CALM      29.99F HX  92
TOLEDO EXEC    MOSUNNY   89  66  46 NE6       30.00F HX  91
LIMA           PTSUNNY   88  61  40 NW5       30.00F
$$

OHZ009>014-019>023-028>033-038-089-252100-
   NORTHEAST OHIO

CITY           SKY/WX    TMP DP  RH WIND       PRES   REMARKS
CLE-HOPKINS    PTSUNNY   89  64  43 N10       30.03F HX  90
CLE-LAKEFRONT  SUNNY     80  70  71 NE10      30.00F
CUY CO. ARPT   MOSUNNY   88  63  42 NW12      30.03F
LORAIN-ELYRIA  SUNNY     86  56  35 S5        30.01F
ASHTABULA      SUNNY     89  61  38 CALM      30.04F
AKRON-CANTON   PTSUNNY   89  59  36 S6G16     30.04F
WOOSTER        MOSUNNY   86  62  44 SE6       30.04F
MANSFIELD      SUNNY     87  61  41 E6        30.03F
YOUNGSTOWN     CLOUDY    87  62  43 VRB3      30.05F
$$

OHZ042-051>053-060>062-070>072-077>081-252100-
  SOUTHWEST OHIO

CITY           SKY/WX    TMP DP  RH WIND       PRES   REMARKS
CINC-COVINGTON PTSUNNY   85  64  49 SW3       30.00F
CINC-LUNKEN    MOSUNNY   87  65  47 S5        29.99F
HAMILTON       CLOUDY    87  62  43 CALM      30.00F
DAYTON         PTSUNNY   85  59  41 S8        30.01F
WRIGHT-PAT AFB SUNNY     87  58  37 S5        30.00F
DAYTON GENERAL PTSUNNY   83  60  45 SE6       30.01F
WILMINGTON     SUNNY     88  61  40 CALM      30.01F
$$

OHZ036-037-039>041-045>050-054>059-063>069-073>076-082>088-252100-
  CENTRAL AND SOUTHEAST OHIO

CITY           SKY/WX    TMP DP  RH WIND       PRES   REMARKS
COLUMBUS       SUNNY     89  63  41 E5        30.00F HX  90
OSU AIRPORT    MOSUNNY   88  63  43 VRB5      30.00F
BOLTON FIELD   SUNNY     88  61  40 CALM      30.01F
RICKENBACK AFB SUNNY     88  60  38 CALM      29.99F
NEWARK         MOSUNNY   88  62  41 VRB3      30.01F
MARION         CLOUDY    88  60  38 S7        30.01F
LANCASTER      PTSUNNY   86  64  47 NE3       30.01F
ZANESVILLE     MOSUNNY   88  63  43 CALM      30.02F
NEW PHILLY     NOT AVBL
$$




USA.gov is the U.S. government's official web portal to all federal, state and local government web resources and services.